Stations météo

réclame
Mon MeteoGroup
Visby Flygplats, Suède (2590): Température de l'air & dewpoint: 17.05.2018 22:00:00 - 23.05.2018 22:00:00 (CEST)Visby Flygplats, Suède (2590): Vitesse du vent & gusts: 17.05.2018 22:00:00 - 23.05.2018 22:00:00 (CEST)Visby Flygplats, Suède (2590): Direction du vent: 17.05.2018 22:00:00 - 23.05.2018 22:00:00 (CEST)Visby Flygplats, Suède (2590): reduced air pressure: 17.05.2018 22:00:00 - 23.05.2018 22:00:00 (CEST)Visby Flygplats, Suède (2590): visibility: 17.05.2018 22:00:00 - 23.05.2018 22:00:00 (CEST)Visby Flygplats, Suède (2590): Quantités de précipitations: 17.05.2018 22:00:00 - 23.05.2018 22:00:00 (CEST)
Date & Time tt [°C] td [°C] ff [km/h] ff [knt] fx [km/h] fx [knt] dd ppp [hPa] vv [km] rr [mm]
23.05.2018 22:00:00 12,1 6,6 9 5 18 10 NNE 1028,1 10 0,0
23.05.2018 21:00:00 14,8 7,1 13 7 25 14 NE 1027,1 10 0,0
23.05.2018 20:00:00 17,4 9,8 13 7 25 14 NE 1026,5 10 0,0
23.05.2018 19:00:00 17,4 10,0 11 6 22 12 N 1026,1 10 0,0
23.05.2018 18:00:00 19,1 5,5 11 6 18 10 N 1025,7 10 0,0
23.05.2018 17:00:00 17,1 10,0 15 8 22 12 NW 1025,7 10 0,0
23.05.2018 16:00:00 19,6 6,3 18 10 25 14 W 1025,0 10 0,0
23.05.2018 15:00:00 18,7 9,5 18 10 22 12 W 1024,8 10 0,0
23.05.2018 14:00:00 19,0 8,0 18 10 22 12 W 1024,4 10 0,0
23.05.2018 13:00:00 19,3 8,6 15 8 22 12 W 1024,1 10 0,0
23.05.2018 12:00:00 18,4 8,6 9 5 18 10 W 1023,9 10 0,0
23.05.2018 11:00:00 18,2 9,3 11 6 14 8 WNW 1023,6 35 0,0
23.05.2018 10:00:00 18,7 8,4 8 4 14 8 WNW 1023,0 10 0,0
23.05.2018 09:00:00 16,7 10,1 9 5 14 8 WNW 1022,6 10 0,0
23.05.2018 08:00:00 18,0 9,6 0 0 7 4 N 1021,9 10 0,0
23.05.2018 07:00:00 14,9 10,1 0 0 7 4 N 1021,4 10 0,0
23.05.2018 06:00:00 9,8 8,2 0 0 7 4 N 1021,0 10 0,0
23.05.2018 05:00:00 7,3 6,9 5 3 11 6 SSE 1020,5 10 0,0
23.05.2018 04:00:00 6,5 5,6 5 3 11 6 ESE 1020,3 10 0,0
23.05.2018 03:00:00 8,3 7,1 4 2 11 6 SSW 1020,1 10 0,0
23.05.2018 02:00:00 7,8 6,4 0 0 7 4 N 1020,0 10 0,0
23.05.2018 01:00:00 8,9 7,0 5 3 7 4 SSE 1019,6 10 0,0
23.05.2018 00:00:00 11,2 7,9 2 1 11 6 - 1019,5 10 0,0
22.05.2018 23:00:00 12,6 8,3 5 3 7 4 SE 1019,0 10 0,0
22.05.2018 22:00:00 13,3 7,7 4 2 7 4 ESE 1019,0 10 0,0
22.05.2018 21:00:00 15,3 7,8 0 0 14 8 N 1018,8 10 0,0
22.05.2018 20:00:00 16,9 7,8 8 4 14 8 E 1018,6 10 0,0
22.05.2018 19:00:00 18,5 7,0 8 4 14 8 ESE 1018,5 10 0,0
22.05.2018 18:00:00 18,8 6,9 16 9 25 14 SE 1018,6 10 0,0
22.05.2018 17:00:00 19,4 6,5 18 10 29 16 SSE 1018,7 10 0,0
22.05.2018 16:00:00 21,8 4,4 13 7 22 12 SSE 1018,6 10 0,0
22.05.2018 15:00:00 22,5 4,5 11 6 25 14 E 1018,8 10 0,0
22.05.2018 14:00:00 21,7 4,3 16 9 29 16 ESE 1019,2 10 0,0
22.05.2018 13:00:00 22,6 5,5 16 9 25 14 SE 1019,5 10 0,0
22.05.2018 12:00:00 21,4 4,9 16 9 25 14 ESE 1020,0 10 0,0
22.05.2018 11:00:00 21,5 5,0 18 10 22 12 ESE 1020,6 10 0,0
22.05.2018 10:00:00 20,1 6,8 15 8 18 10 SE 1021,0 10 0,0
22.05.2018 09:00:00 20,4 6,7 11 6 14 8 SE 1021,1 10 0,0
22.05.2018 08:00:00 18,4 8,4 13 7 14 8 ESE 1021,4 10 0,0
22.05.2018 07:00:00 15,9 9,1 9 5 11 6 ESE 1021,8 10 0,0
22.05.2018 06:00:00 12,4 8,1 11 6 11 6 ESE 1022,0 10 0,0
22.05.2018 05:00:00 9,3 6,7 15 8 14 8 ESE 1022,3 10 0,0
22.05.2018 04:00:00 8,9 6,3 13 7 14 8 ESE 1022,5 10 0,0
22.05.2018 03:00:00 9,7 5,3 16 9 14 8 ESE 1022,9 10 0,0
22.05.2018 02:00:00 10,3 4,7 15 8 14 8 ESE 1023,5 10 0,0
22.05.2018 01:00:00 10,8 4,0 15 8 14 8 ESE 1024,0 10 0,0
22.05.2018 00:00:00 9,5 3,2 13 7 14 8 ESE 1024,4 10 0,0
21.05.2018 23:00:00 9,2 4,0 13 7 14 8 ESE 1024,8 10 0,0
21.05.2018 22:00:00 10,2 3,7 8 4 7 4 ESE 1025,2 10 0,0
21.05.2018 21:00:00 15,4 2,9 5 3 11 6 ESE 1025,1 10 0,0
21.05.2018 20:00:00 16,7 7,9 2 1 7 4 - 1025,1 10 0,0
21.05.2018 19:00:00 15,8 6,2 5 3 14 8 NNW 1025,3 10 0,0
21.05.2018 18:00:00 16,4 5,9 5 3 11 6 WNW 1025,8 10 0,0
21.05.2018 17:00:00 16,6 5,8 8 4 14 8 WNW 1026,3 10 0,0
21.05.2018 16:00:00 17,0 5,9 9 5 14 8 WNW 1026,9 10 0,0
21.05.2018 15:00:00 15,8 6,0 11 6 18 10 W 1027,5 10 0,0
21.05.2018 14:00:00 17,9 5,8 11 6 22 12 W 1027,9 10 0,0
21.05.2018 13:00:00 16,9 5,5 11 6 14 8 WNW 1028,4 10 0,0
21.05.2018 12:00:00 16,9 5,2 9 5 14 8 WNW 1028,8 10 0,0
21.05.2018 11:00:00 17,1 4,7 8 4 14 8 W 1029,2 10 0,0
21.05.2018 10:00:00 17,1 4,1 5 3 14 8 W 1029,3 10 0,0
21.05.2018 09:00:00 16,6 3,6 9 5 18 10 W 1029,2 10 0,0
21.05.2018 08:00:00 16,5 4,2 11 6 14 8 W 1029,1 10 0,0
21.05.2018 07:00:00 15,4 4,7 9 5 14 8 W 1029,1 10 0,0
21.05.2018 06:00:00 12,9 4,8 9 5 25 14 WSW 1029,1 10 0,0
21.05.2018 05:00:00 14,0 4,0 11 6 25 14 W 1028,8 10 0,0
21.05.2018 04:00:00 10,1 4,2 9 5 14 8 WSW 1029,0 10 0,0
21.05.2018 03:00:00 13,0 4,2 15 8 22 12 WSW 1028,7 10 0,0
21.05.2018 02:00:00 13,5 3,6 15 8 25 14 WSW 1028,7 10 0,0
21.05.2018 01:00:00 13,6 3,1 16 9 25 14 WSW 1028,6 10 0,0
21.05.2018 00:00:00 10,6 4,1 11 6 14 8 SW 1028,5 10 0,0
20.05.2018 23:00:00 10,8 3,8 13 7 14 8 SW 1028,3 10 0,0
20.05.2018 22:00:00 11,4 2,7 15 8 18 10 SSW 1028,2 10 0,0
20.05.2018 21:00:00 12,7 2,8 11 6 18 10 SSW 1027,8 10 0,0
20.05.2018 20:00:00 14,4 3,2 15 8 22 12 SW 1027,5 10 0,0
20.05.2018 19:00:00 18,0 2,7 18 10 22 12 SSW 1027,6 10 0,0
20.05.2018 18:00:00 19,4 2,7 18 10 25 14 SW 1027,7 10 0,0
20.05.2018 17:00:00 17,5 1,5 21 11 25 14 WSW 1028,4 10 0,0
20.05.2018 16:00:00 18,5 2,3 18 10 25 14 WSW 1028,5 10 0,0
20.05.2018 15:00:00 18,6 1,1 18 10 25 14 WSW 1028,6 10 0,0
20.05.2018 14:00:00 18,9 0,0 18 10 22 12 WSW 1028,6 10 0,0
20.05.2018 13:00:00 19,0 1,0 13 7 18 10 W 1028,7 10 0,0
20.05.2018 12:00:00 17,6 3,1 11 6 18 10 W 1029,2 10 0,0
20.05.2018 11:00:00 16,4 3,5 9 5 18 10 W 1028,8 10 0,0
20.05.2018 10:00:00 16,1 3,5 9 5 14 8 WNW 1028,4 10 0,0
20.05.2018 09:00:00 14,7 4,4 9 5 14 8 W 1028,3 10 0,0
20.05.2018 08:00:00 13,6 5,0 9 5 14 8 W 1028,2 10 0,0
20.05.2018 07:00:00 12,7 4,9 8 4 14 8 WSW 1027,7 10 0,0
20.05.2018 06:00:00 9,4 5,6 8 4 11 6 WSW 1027,3 10 0,0
20.05.2018 05:00:00 4,4 1,9 5 3 7 4 WSW 1026,8 10 0,0
20.05.2018 04:00:00 5,2 1,9 8 4 11 6 SW 1026,5 10 0,0
20.05.2018 03:00:00 7,0 2,1 9 5 11 6 SW 1026,2 10 0,0
20.05.2018 02:00:00 5,9 1,0 9 5 7 4 WSW 1025,9 10 0,0
20.05.2018 01:00:00 4,4 1,3 5 3 7 4 SW 1025,6 10 0,0
20.05.2018 00:00:00 5,1 1,2 5 3 7 4 SW 1025,5 10 0,0
19.05.2018 23:00:00 5,2 1,3 4 2 7 4 SW 1025,1 10 0,0
19.05.2018 22:00:00 6,8 1,9 0 0 4 2 N 1025,0 10 0,0
19.05.2018 21:00:00 10,2 1,6 0 0 7 4 N 1024,5 10 0,0
19.05.2018 20:00:00 12,8 -0,1 4 2 11 6 N 1024,2 10 0,0
19.05.2018 19:00:00 14,4 -1,3 8 4 18 10 N 1024,3 10 0,0
19.05.2018 18:00:00 14,6 -1,1 13 7 22 12 N 1024,4 10 0,0
19.05.2018 17:00:00 14,9 0,3 18 10 25 14 N 1024,3 10 0,0
19.05.2018 16:00:00 14,6 0,4 18 10 25 14 N 1024,4 10 0,0
19.05.2018 15:00:00 14,1 2,0 22 12 29 16 N 1024,3 10 0,0
19.05.2018 14:00:00 14,3 2,8 18 10 29 16 N 1024,3 10 0,0
19.05.2018 13:00:00 13,7 4,3 18 10 25 14 NNW 1024,3 10 0,0
19.05.2018 12:00:00 12,9 5,3 18 10 29 16 N 1024,2 10 0,0
19.05.2018 11:00:00 12,5 4,9 18 10 29 16 N 1023,9 10 0,0
19.05.2018 10:00:00 11,6 4,8 18 10 29 16 N 1023,9 10 0,0
19.05.2018 09:00:00 11,1 4,5 18 10 29 16 N 1023,5 10 0,0
19.05.2018 08:00:00 10,4 4,7 16 9 25 14 N 1023,0 10 0,0
19.05.2018 07:00:00 9,5 4,9 16 9 25 14 N 1022,3 10 0,0
19.05.2018 06:00:00 9,0 5,2 18 10 29 16 N 1021,8 10 0,0
19.05.2018 05:00:00 8,2 5,3 21 11 29 16 NNW 1021,5 10 0,0
19.05.2018 04:00:00 8,2 5,3 21 11 29 16 NNW 1021,3 10 0,0
19.05.2018 03:00:00 7,2 4,7 11 6 22 12 NNW 1021,2 10 0,0
19.05.2018 02:00:00 5,1 2,5 9 5 14 8 NNW 1021,1 10 0,0
19.05.2018 01:00:00 5,3 1,4 11 6 22 12 N 1020,9 10 0,0
19.05.2018 00:00:00 9,0 -0,3 15 8 22 12 NNE 1020,7 10 0,0
18.05.2018 23:00:00 8,9 -0,7 15 8 29 16 NE 1020,4 10 0,0
18.05.2018 22:00:00 8,7 -0,9 15 8 36 19 NE 1020,4 10 0,0
18.05.2018 21:00:00 10,6 -2,1 22 12 36 19 NNE 1020,0 10 0,0
18.05.2018 20:00:00 11,1 -3,0 21 11 25 14 N 1019,3 10 0,0
18.05.2018 19:00:00 11,3 1,0 18 10 29 16 N 1019,1 10 0,0
18.05.2018 18:00:00 10,8 3,8 22 12 40 21 N 1019,0 10 0,0
18.05.2018 17:00:00 14,6 -0,3 29 16 43 23 N 1018,4 10 0,0
18.05.2018 16:00:00 13,7 -0,4 31 17 47 25 N 1018,4 10 0,0
18.05.2018 15:00:00 12,2 4,4 28 15 50 27 N 1018,3 10 0,0
18.05.2018 14:00:00 13,1 2,6 35 19 50 27 N 1018,1 10 0,0
18.05.2018 13:00:00 12,3 3,0 35 19 54 29 N 1017,9 10 0,0
18.05.2018 12:00:00 12,0 4,5 35 19 54 29 N 1017,5 10 0,0
18.05.2018 11:00:00 12,0 4,5 34 18 47 25 N 1016,9 10 0,0
18.05.2018 10:00:00 11,5 4,9 29 16 43 23 N 1016,3 10 0,0
18.05.2018 09:00:00 10,6 4,9 26 14 36 19 N 1015,8 10 0,0
18.05.2018 08:00:00 10,2 5,2 26 14 40 21 N 1015,2 10 0,0
18.05.2018 07:00:00 10,0 4,2 24 13 40 21 N 1014,6 10 0,0
18.05.2018 06:00:00 8,4 4,2 21 11 32 18 N 1014,6 10 0,0
18.05.2018 05:00:00 7,8 3,8 22 12 32 18 N 1014,4 10 0,0
18.05.2018 04:00:00 7,8 4,2 18 10 29 16 N 1014,1 10 0,0
18.05.2018 03:00:00 7,5 4,5 16 9 25 14 N 1014,2 10 0,0
18.05.2018 02:00:00 8,0 4,6 18 10 29 16 N 1014,2 10 0,0
18.05.2018 01:00:00 7,8 4,4 18 10 43 23 N 1014,4 10 0,0
18.05.2018 00:00:00 8,6 3,4 26 14 43 23 NNE 1014,4 10 0,0
17.05.2018 23:00:00 8,3 4,1 24 13 40 21 NNE 1014,5 10 0,0
17.05.2018 22:00:00 8,4 4,0 24 13 40 21 NNE 1014,5 10 0,0

tt = Température de l'air
td = dewpoint
ff = Vitesse du vent
fx = gusts
dd = Direction du vent
ppp = reduced air pressure
vv = visibility
rr = Quantités de précipitations

stations d'obs. à proximité